Zurück zum Katalog

MAQSAT H

AktivWissenschaftHEO
NORAD 25023·PAYLOAD·🇪🇺 EU

Gestartet Oct 30, 1997 von Guiana Space Centre

Loading…

Nächste Überflüge (nächste 24 Stunden)

TLE

AktuellSource: Space-Track

Epoche: Sep 14, 2026, 14:14 UTC

1 25023U 97066A   26257.59338775  .00000236  00000-0  19635-2 0  9996
2 25023   7.8240 285.5239 6505176 260.0486  19.5264  3.10991381326682

Verfolge MAQSAT H in Echtzeit mit AllMySat

Download on the App Store